Wind_Speed
4 5 6 4 7 5 2 6 7 4 7 10 9 8 7 5 5 5 4 7 3 2 2 2 2 3 9 12 14 18 18 15 16 18 22 24 24 24 26 26 26 26 25 24 23 23 23 21 21 21 20 21 21 20 21 21 22 21 21 22 21 20 19
3 2 9 7 5 4 2 3 5 5 7 8 7 5 5 6 7 5 5 9 4 4 2 4 4 3 4 8 12 16 17 15 14 16 25 29 26 25 26 26 27 27 25 25 24 23 23 22 21 21 20 20 20 19 20 21 22 22 22 22 21 20 19
2 2 7 7 3 5 6 2 2 4 4 4 5 6 7 8 7 4 6 11 7 2 2 1 2 2 4 5 8 13 16 17 16 15 20 26 26 25 26 26 26 27 26 25 25 23 22 22 21 21 20 19 20 20 19 20 21 21 21 21 21 20 20
1 3 5 5 2 5 8 4 4 6 4 2 3 3 5 7 6 4 6 8 4 3 2 2 2 1 2 5 8 10 14 18 19 18 18 21 23 23 24 26 26 26 27 26 25 24 23 22 21 20 21 20 20 20 19 19 20 21 21 20 20 21 20
3 3 2 3 2 3 7 6 5 6 5 5 4 2 4 7 6 3 5 6 1 3 2 2 4 5 2 2 6 9 11 17 19 19 17 18 23 24 22 25 27 26 27 26 25 24 23 22 22 21 21 21 20 19 20 20 20 20 21 21 20 20 19
4 2 1 3 3 3 5 5 5 6 4 2 2 4 7 8 6 5 5 6 0 3 2 2 4 5 7 5 3 8 12 13 17 18 18 16 21 26 23 23 26 26 26 27 25 24 24 23 22 22 21 21 20 20 20 20 20 20 20 20 20 20 19
8 1 2 3 3 5 8 6 4 5 3 2 2 3 7 7 7 6 6 7 2 3 0 2 4 1 7 6 1 5 13 11 14 16 21 18 15 22 24 21 24 26 25 25 24 24 25 23 23 23 21 21 21 20 20 20 20 20 20 20 20 20 19
9 3 1 3 2 3 8 6 3 5 5 5 3 4 8 9 7 6 6 6 1 3 2 3 2 1 1 6 5 3 9 5 11 12 19 20 15 20 25 21 22 25 25 25 24 23 24 24 23 23 22 21 21 20 20 19 19 20 20 19 20 20 20
7 5 3 5 4 5 6 1 4 5 8 12 9 7 8 9 7 6 6 4 0 2 4 5 5 4 3 5 6 6 8 3 6 8 13 19 18 21 23 20 21 24 25 26 26 24 23 23 23 23 23 22 21 21 20 19 19 19 19 19 19 20 21
6 5 4 3 2 5 5 3 2 7 14 13 9 6 6 5 5 6 5 2 2 2 3 8 6 6 2 5 6 5 5 3 2 5 9 14 18 20 19 18 20 22 24 24 25 26 25 23 23 23 23 22 21 22 22 21 20 20 20 20 19 20 21
7 8 7 5 3 7 8 3 4 11 12 6 6 5 5 4 5 4 2 2 4 3 4 7 6 6 3 5 5 4 2 1 1 4 6 10 15 18 18 18 20 21 23 24 24 25 24 23 23 23 23 23 23 24 24 23 22 22 22 21 21 22 21
10 11 8 6 6 7 10 9 8 10 8 5 5 4 7 10 8 3 1 3 6 1 4 3 6 4 5 5 4 2 2 3 3 5 6 8 12 16 18 20 21 21 22 22 23 23 22 22 23 23 23 24 23 23 23 22 22 22 22 22 23 23 21
9 11 7 6 5 4 6 10 10 9 8 8 8 5 5 10 10 5 3 5 7 4 2 3 6 1 4 0 1 1 2 3 4 4 6 6 7 12 17 19 21 21 20 20 22 22 21 20 21 20 20 21 22 21 21 20 21 22 21 22 22 22 21
9 11 8 6 6 5 5 9 11 11 10 10 10 8 8 10 9 8 5 4 8 7 2 6 4 5 5 4 2 3 2 3 4 3 4 3 3 8 14 17 18 19 19 18 20 20 20 19 19 19 19 19 19 20 20 20 21 21 21 21 21 21 21
9 11 9 7 8 7 7 10 12 12 12 12 12 11 11 9 7 8 8 6 7 6 3 4 5 7 5 4 2 3 3 3 3 3 4 3 1 4 11 16 17 19 20 18 18 19 19 19 19 19 19 19 19 19 20 20 20 20 21 21 20 20 20
7 10 10 7 7 9 10 12 12 12 13 11 10 10 6 4 6 8 9 8 5 2 6 7 4 5 4 5 3 2 2 4 3 4 6 7 4 1 6 10 12 15 17 17 16 17 17 18 18 18 18 18 18 18 18 18 19 19 19 19 19 20 20
7 10 6 4 6 9 9 7 4 6 10 9 10 9 4 6 7 7 6 6 5 3 5 8 4 3 2 2 4 3 2 4 5 5 7 12 11 5 3 4 7 9 10 11 13 14 14 14 14 15 16 15 15 16 16 17 17 17 16 16 17 18 19
8 8 2 3 8 8 4 1 3 4 7 6 9 10 6 6 6 2 1 5 5 4 5 5 1 2 3 4 4 4 3 2 4 4 5 11 14 11 6 6 7 8 6 3 5 8 10 10 10 11 12 12 12 13 14 14 14 14 13 14 15 15 18
8 7 2 4 8 3 2 2 1 2 5 7 9 10 11 11 8 6 7 6 4 7 7 2 2 2 3 4 3 3 2 2 2 2 2 4 9 13 12 10 10 10 7 5 6 8 9 10 10 11 11 11 10 10 12 12 13 13 13 14 14 14 16
6 6 6 7 4 2 2 5 3 3 5 7 9 10 9 8 6 6 6 3 4 10 8 2 2 4 5 5 5 4 4 3 1 1 1 1 2 11 15 12 11 11 11 10 11 12 11 10 10 12 12 11 10 9 10 12 12 12 13 14 13 13 15
6 7 7 7 6 6 7 6 3 2 5 4 5 7 8 4 2 3 4 3 8 12 6 3 4 5 5 3 5 6 5 4 4 2 2 1 2 8 13 12 11 13 13 12 12 12 10 9 9 11 12 12 11 11 12 13 13 13 15 16 16 15 16
5 5 6 7 8 6 2 1 1 0 3 6 6 6 6 4 2 2 5 6 10 11 5 4 3 4 3 1 3 7 6 4 5 4 3 3 4 7 11 12 12 13 13 12 11 10 10 9 9 10 12 13 12 12 12 13 14 15 16 17 17 17 16
5 6 6 6 7 4 2 3 2 2 2 5 7 6 4 5 10 7 3 4 5 6 4 3 2 2 2 1 3 5 5 4 5 5 4 4 5 6 9 12 13 13 12 12 11 10 10 10 9 9 10 11 11 11 11 11 12 13 13 13 15 16 15
7 8 7 6 6 3 2 3 3 3 3 4 7 6 3 4 9 7 4 3 4 8 5 4 3 2 1 3 4 2 0 2 5 6 6 6 6 6 9 13 15 13 11 11 12 12 12 12 12 11 10 11 11 11 9 8 8 8 9 11 13 15 16
9 9 8 7 4 2 3 0 3 2 3 5 6 4 1 3 5 6 4 5 9 9 4 3 2 1 2 6 10 9 6 5 7 7 8 8 7 8 11 17 19 18 16 15 15 14 14 14 14 14 13 12 12 11 9 9 8 6 5 6 8 10 13
7 7 8 7 4 1 2 2 1 0 3 5 3 1 1 1 3 5 6 5 5 5 4 2 2 5 7 8 11 12 9 9 10 9 10 11 10 10 13 17 20 22 24 23 21 18 17 17 16 15 14 15 14 13 14 14 12 11 9 7 6 6 6
6 7 7 7 3 0 1 2 1 2 3 3 2 1 2 1 3 5 4 3 2 2 7 6 3 6 9 8 10 13 12 12 13 12 12 12 12 12 13 15 17 21 25 26 24 22 22 23 21 17 17 20 20 19 20 19 16 15 15 14 13 14 14
5 6 4 2 1 2 2 2 2 1 1 1 3 4 3 3 5 5 3 1 2 0 7 10 8 8 10 9 9 11 13 13 14 14 15 15 14 15 16 17 18 22 24 25 25 25 25 26 25 23 22 24 24 24 24 22 20 19 19 18 18 18 19
5 6 3 1 2 3 3 4 4 3 2 2 4 7 8 6 4 3 4 2 1 1 3 7 9 10 13 12 7 5 8 12 15 16 16 17 17 17 18 19 22 26 28 28 28 28 28 28 28 27 26 26 27 26 24 23 22 21 21 21 21 21 21
4 5 5 2 3 4 4 4 4 3 5 6 5 6 8 6 3 3 4 1 3 3 2 5 9 13 16 14 9 4 5 9 14 16 17 18 19 19 19 21 24 30 33 33 33 32 30 29 29 28 27 26 26 25 23 22 22 22 22 22 23 23 23
3 2 3 2 2 3 4 5 4 4 5 6 5 6 6 5 4 3 1 2 5 5 6 10 16 18 18 17 16 14 12 11 13 15 16 18 19 20 21 22 23 27 30 32 32 31 29 27 27 27 27 27 27 27 25 24 24 24 24 25 25 24 23
6 4 2 2 3 3 4 6 6 5 4 3 3 5 5 5 4 2 3 6 7 7 10 15 18 19 18 19 21 21 17 14 13 15 17 18 19 20 21 21 22 23 25 27 27 27 25 23 22 22 24 24 24 25 24 23 24 25 26 27 26 24 23
8 6 4 5 5 5 5 4 4 3 3 2 3 4 4 5 4 3 5 6 7 9 12 16 19 19 19 20 20 21 19 16 14 15 17 19 20 21 21 22 23 23 23 24 25 25 24 22 21 21 21 21 21 21 20 20 20 21 22 23 22 20 20
6 3 2 3 4 3 3 2 1 0 2 3 3 3 3 4 4 4 5 7 9 10 13 17 20 22 22 21 21 22 21 18 16 15 15 18 20 21 22 24 24 23 22 24 26 25 24 23 22 21 20 19 19 18 18 18 18 18 18 18 17 16 16
3 2 2 3 3 2 3 2 2 1 1 3 3 3 3 3 4 5 6 10 13 14 15 17 20 22 23 22 24 26 26 23 20 15 13 15 19 21 23 24 24 23 22 23 24 24 22 21 20 20 19 18 17 17 17 16 16 17 16 16 16 15 15
2 3 3 3 2 4 6 4 3 2 2 2 1 2 3 4 4 5 7 13 18 19 18 18 19 21 21 22 25 29 30 28 23 16 13 15 19 22 23 23 23 23 22 22 22 22 21 21 20 20 19 18 17 17 17 15 15 15 14 14 15 14 14
2 5 6 6 7 8 8 7 5 4 4 3 2 2 4 6 7 7 11 17 21 22 21 20 19 21 23 25 26 27 28 27 22 18 16 16 18 21 23 21 21 21 21 20 20 20 20 20 20 20 19 18 17 16 16 17 17 17 15 14 14 13 12
Wind_Direction
201 278 286 245 256 259 309 295 258 269 304 277 262 271 284 284 264 265 250 244 237 146 221 305 329 199 157 157 173 180 187 186 182 196 199 201 210 202 189 186 185 185 185 182 182 182 183 183 182 184 184 183 184 185 186 189 191 192 196 197 195 196 196
150 349 296 258 244 268 260 275 288 326 321 286 271 269 268 255 249 265 267 250 227 130 232 302 354 316 202 177 180 178 184 189 187 198 197 199 214 209 190 186 186 185 186 184 183 184 184 185 185 185 185 184 186 188 189 191 191 191 196 199 197 197 199
137 151 266 246 202 269 270 254 256 272 278 268 264 258 257 253 245 263 266 246 230 146 213 251 46 318 289 274 217 183 179 189 194 202 197 199 216 214 192 186 186 185 186 185 184 185 185 186 186 185 186 187 188 191 192 193 194 194 195 197 197 198 201
228 185 244 246 221 265 267 249 221 244 261 255 259 292 288 270 253 264 276 256 236 68 35 16 15 265 286 317 278 219 187 185 192 201 198 193 207 214 198 187 186 187 188 186 185 186 185 186 187 187 188 190 191 192 194 195 196 196 196 196 198 199 200
244 233 230 250 246 241 251 246 235 237 233 222 212 218 257 256 257 268 280 275 248 83 41 22 8 333 285 229 278 268 217 187 187 197 196 190 199 206 201 191 187 188 189 187 186 186 186 187 188 189 191 193 193 192 195 196 196 197 197 197 198 199 200
259 263 103 283 286 289 278 267 257 257 252 238 229 240 240 240 252 253 257 275 301 88 348 48 64 339 292 239 233 291 261 200 181 193 193 191 199 200 200 196 191 189 189 188 186 187 188 188 188 191 192 193 194 193 194 197 198 199 199 199 200 200 200
273 255 96 301 314 322 297 283 290 288 256 191 170 261 273 264 257 253 256 267 234 123 17 63 94 235 284 296 258 273 272 220 176 191 195 191 199 200 200 199 191 189 188 186 187 188 190 191 190 192 194 194 195 195 195 197 198 199 200 200 202 202 203
273 238 167 259 214 237 265 263 314 318 291 275 225 228 272 276 265 260 256 257 196 82 55 72 57 237 281 347 350 320 302 243 164 183 196 195 198 197 197 198 191 190 190 190 191 191 192 194 193 193 194 195 196 196 196 197 198 199 200 200 202 205 205
263 232 233 249 214 229 257 283 20 328 284 273 249 220 251 266 268 275 267 260 79 3 350 37 6 325 71 44 13 13 356 2 153 177 194 196 201 199 196 198 196 194 196 199 201 198 196 196 195 194 194 195 196 197 198 198 198 198 199 200 202 205 207
276 265 275 290 253 261 262 119 98 257 246 250 251 239 249 257 278 283 265 274 276 246 4 28 353 315 44 75 45 39 20 13 143 178 186 191 201 205 203 202 203 201 198 199 201 199 198 197 195 193 194 196 198 200 202 202 201 202 201 201 201 205 209
288 287 295 306 266 257 268 232 215 246 248 280 319 295 278 293 297 283 231 240 269 254 38 16 321 302 18 62 55 63 87 70 132 172 179 187 197 205 208 204 204 205 200 195 195 195 194 196 197 196 198 202 203 206 208 205 206 210 209 208 209 212 216
261 271 281 293 265 256 277 274 253 254 259 286 301 293 311 306 282 261 342 300 281 286 76 5 292 308 27 28 22 49 137 157 166 173 174 185 196 205 211 206 200 201 199 193 190 191 192 194 197 197 199 202 204 208 211 205 204 210 212 213 217 222 226
263 273 272 272 265 257 285 283 271 269 261 253 255 247 274 287 282 283 302 281 282 302 98 242 276 32 88 268 279 114 165 169 167 175 177 186 199 208 212 209 200 197 196 192 188 189 190 191 193 194 194 197 201 207 210 204 202 208 210 211 216 221 226
284 281 272 258 250 231 251 267 263 262 260 256 261 256 232 238 262 281 276 263 276 284 218 211 225 103 115 227 218 124 139 156 150 154 164 172 197 209 211 213 208 201 198 196 192 190 191 191 190 191 192 194 198 204 208 205 203 208 211 211 213 215 220
283 275 263 250 249 242 235 239 241 247 255 252 249 257 258 251 263 291 297 288 275 285 302 243 193 121 133 211 193 125 120 125 147 146 135 134 127 211 211 212 213 205 200 202 199 193 192 191 190 191 193 196 198 203 210 210 208 212 215 216 217 217 218
276 271 258 248 266 281 268 251 243 239 245 252 251 249 256 273 294 298 290 280 270 304 312 280 205 141 169 183 140 113 109 109 131 142 142 143 129 179 213 208 206 197 195 206 207 194 187 186 188 191 194 198 201 203 210 212 211 215 221 222 221 220 218
280 276 283 321 307 291 274 268 289 262 247 262 277 267 208 181 231 262 279 300 331 350 288 270 229 155 172 128 83 66 84 107 115 128 151 153 143 144 189 197 196 190 189 200 198 184 174 172 178 187 189 192 197 200 205 209 212 217 221 222 221 220 217
274 275 342 353 284 273 263 81 43 309 278 286 288 284 278 239 223 208 272 288 305 296 272 274 274 99 80 62 60 62 75 110 124 135 165 158 147 148 163 184 198 203 205 184 146 146 146 148 160 177 185 191 196 200 203 205 211 215 214 216 218 217 220
274 289 316 261 264 287 56 109 142 275 290 291 282 279 276 264 239 210 222 240 289 284 267 255 101 117 110 90 77 68 63 86 141 168 193 171 149 145 155 181 200 201 197 164 134 143 148 151 165 173 178 188 193 197 201 200 205 210 209 213 215 212 220
263 269 253 253 285 348 255 239 242 280 274 270 275 275 270 269 262 239 225 207 253 259 251 209 141 153 140 113 84 61 50 64 103 182 213 257 151 136 146 170 189 189 188 177 164 166 164 165 176 176 175 184 186 189 195 194 199 209 210 210 212 212 218
252 266 264 269 291 285 256 239 214 263 285 296 303 291 282 282 254 207 149 147 240 243 223 178 181 153 132 97 66 57 41 59 78 74 102 118 120 129 137 148 155 164 179 182 174 171 170 169 170 170 174 180 180 181 183 183 187 197 201 201 204 209 216
244 267 275 272 274 275 272 119 121 156 317 329 325 295 285 309 313 213 160 175 227 233 202 174 195 161 155 223 68 60 33 40 72 67 72 105 116 123 131 137 137 139 150 160 160 165 175 174 165 167 176 180 184 188 189 190 194 197 200 203 205 208 212
249 256 265 265 272 281 109 130 211 270 326 329 314 279 261 3 8 347 275 221 238 250 220 156 176 210 197 138 70 56 22 20 63 77 81 103 117 119 125 131 129 125 128 134 137 147 163 166 157 156 162 168 179 187 190 196 201 203 209 213 216 217 216
241 244 253 259 273 307 94 158 248 302 348 321 294 272 252 6 7 346 294 256 274 276 252 155 162 267 270 136 145 161 145 51 74 86 90 98 112 119 123 125 123 124 130 133 135 144 155 158 153 148 147 152 160 163 166 175 183 196 214 222 224 225 223
238 238 247 257 267 33 67 238 271 329 336 287 272 276 338 358 342 328 299 232 224 236 228 140 127 71 117 147 155 160 155 117 103 104 100 94 93 105 119 123 124 127 131 131 130 136 142 142 140 141 145 145 139 134 135 135 133 137 166 203 216 218 221
249 254 259 262 264 56 35 318 310 269 282 286 283 266 294 300 299 301 293 263 226 197 170 166 142 128 134 145 147 148 144 123 115 113 104 98 96 102 112 117 119 121 123 121 118 117 120 122 122 128 137 135 128 123 120 112 106 105 104 105 114 130 166
248 250 256 267 282 62 194 229 189 206 259 297 331 223 202 247 284 281 283 304 320 160 158 166 160 137 145 153 149 145 138 126 123 119 111 105 101 101 106 111 114 116 116 116 114 112 113 115 116 121 127 125 121 117 111 105 105 106 105 105 111 121 130
256 247 248 270 233 175 187 237 270 344 32 352 309 286 245 254 285 293 296 294 313 355 145 154 165 162 148 140 143 143 134 129 128 121 115 113 109 105 105 106 110 113 112 112 113 114 114 116 117 119 120 117 114 112 110 109 111 111 111 114 116 117 118
279 278 300 54 181 210 242 272 280 309 310 270 291 295 287 288 302 312 309 286 166 91 151 158 159 149 132 118 120 147 140 135 134 127 119 117 115 112 109 108 112 115 114 114 113 113 114 116 115 114 113 111 110 111 113 115 115 114 117 119 118 114 112
282 275 262 248 243 243 258 269 266 276 278 273 282 289 287 294 308 312 320 359 121 133 163 141 124 125 129 123 115 101 92 112 124 124 120 119 117 115 113 113 117 120 119 116 113 110 110 112 113 112 113 112 111 111 113 114 113 113 114 114 114 114 113
280 259 219 221 258 251 257 268 263 259 268 269 273 278 276 277 283 293 287 185 168 151 145 134 123 123 133 136 129 117 100 100 114 119 118 118 117 115 115 115 116 118 116 113 109 105 104 104 105 106 106 106 105 106 105 104 105 106 106 106 106 109 111
252 252 226 238 260 244 244 259 264 267 268 257 256 266 262 252 254 245 194 195 184 156 146 141 131 129 134 135 132 128 123 119 122 121 119 118 116 116 118 118 116 115 113 111 108 106 105 104 104 104 104 104 104 102 100 98 99 101 102 103 104 106 108
247 244 227 233 244 232 221 234 259 279 283 273 266 263 251 240 230 188 169 181 177 158 151 147 141 139 140 137 134 133 131 127 125 123 123 123 121 118 118 119 117 115 113 112 110 108 108 109 109 108 107 106 105 103 101 101 100 97 96 97 98 99 101
251 246 196 224 256 251 206 191 173 269 270 266 252 241 239 232 213 176 158 171 177 165 152 150 149 145 142 141 138 132 130 130 128 124 125 126 122 119 118 117 117 116 114 112 111 109 109 110 109 106 105 104 102 101 101 102 102 100 98 96 94 94 96
253 219 189 216 229 187 142 120 87 75 289 275 244 231 256 244 204 179 162 165 170 164 154 154 152 143 138 141 141 136 133 130 124 121 127 127 119 116 116 116 116 116 114 111 109 108 109 109 107 106 106 105 104 104 101 100 99 100 99 97 97 99 101
229 171 172 188 162 125 115 101 80 71 8 325 275 208 250 237 195 180 170 166 165 161 155 154 151 140 137 144 147 141 134 127 121 119 127 127 119 114 114 114 114 113 110 108 106 105 105 105 105 104 104 103 105 105 103 100 97 94 94 94 94 95 96
170 132 129 129 122 115 111 103 86 74 62 49 94 157 210 210 192 177 162 156 155 153 149 147 146 144 142 143 144 140 133 130 131 130 129 127 123 118 116 115 115 112 109 108 107 106 105 105 104 103 100 98 98 101 107 112 112 109 105 101 98 97 96
Height
1484 1489 1486 1484 1494 1502 1502 1501 1499 1494 1489 1490 1497 1501 1494 1502 1526 1525 1511 1503 1496 1496 1498 1487 1484 1484 1482 1487 1491 1492 1497 1499 1501 1504 1505 1508 1510 1510 1512 1514 1518 1521 1524 1526 1529 1531 1534 1537 1539 1542 1544 1546 1548 1550 1552 1554 1556 1558 1560 1561 1563 1565 1566
1485 1487 1489 1485 1488 1492 1500 1513 1507 1493 1495 1496 1497 1512 1515 1517 1530 1520 1504 1504 1502 1509 1516 1501 1492 1495 1491 1489 1490 1492 1495 1498 1500 1501 1503 1506 1509 1510 1511 1513 1516 1519 1522 1525 1527 1530 1533 1535 1538 1541 1543 1545 1547 1549 1551 1553 1554 1556 1558 1560 1562 1564 1565
1487 1484 1491 1491 1489 1488 1492 1503 1501 1498 1515 1517 1506 1515 1522 1523 1527 1520 1510 1503 1495 1501 1509 1502 1500 1504 1499 1494 1492 1491 1492 1495 1498 1499 1501 1506 1509 1511 1509 1511 1515 1517 1520 1523 1525 1529 1531 1534 1537 1539 1542 1544 1546 1548 1550 1552 1554 1555 1557 1559 1561 1562 1564
1485 1486 1493 1497 1498 1496 1491 1493 1495 1495 1508 1516 1515 1519 1521 1518 1519 1523 1520 1507 1497 1500 1500 1498 1502 1501 1498 1500 1498 1492 1490 1492 1495 1497 1500 1505 1509 1510 1508 1510 1513 1515 1518 1521 1524 1527 1529 1532 1536 1537 1540 1543 1544 1547 1549 1551 1553 1554 1556 1558 1559 1561 1563
1487 1493 1495 1497 1504 1509 1503 1498 1499 1499 1498 1500 1510 1520 1520 1514 1514 1522 1528 1518 1505 1500 1495 1495 1500 1498 1497 1500 1499 1494 1489 1489 1493 1495 1498 1502 1505 1507 1507 1509 1511 1514 1517 1519 1522 1526 1528 1531 1534 1536 1539 1541 1543 1545 1547 1549 1551 1553 1555 1557 1558 1560 1561
1491 1492 1490 1490 1496 1501 1500 1497 1498 1499 1498 1503 1521 1529 1513 1499 1502 1509 1517 1518 1509 1501 1496 1494 1496 1499 1498 1494 1494 1496 1490 1487 1491 1493 1496 1500 1502 1504 1506 1508 1510 1512 1515 1518 1521 1524 1527 1529 1532 1534 1537 1539 1541 1544 1545 1548 1550 1551 1554 1555 1557 1559 1560
1488 1485 1486 1489 1492 1493 1494 1495 1496 1496 1497 1507 1528 1537 1516 1496 1495 1495 1497 1507 1507 1499 1494 1493 1495 1499 1498 1492 1491 1494 1491 1487 1488 1492 1495 1499 1501 1503 1505 1507 1509 1511 1514 1516 1519 1522 1525 1527 1529 1533 1535 1537 1540 1542 1544 1546 1548 1550 1552 1554 1556 1557 1559
1484 1480 1484 1488 1490 1495 1497 1496 1498 1501 1503 1503 1511 1524 1520 1505 1497 1494 1498 1508 1507 1498 1492 1491 1493 1495 1494 1491 1490 1492 1491 1487 1488 1492 1495 1498 1500 1501 1503 1506 1508 1511 1513 1515 1517 1520 1523 1525 1528 1530 1533 1536 1538 1540 1542 1544 1546 1548 1550 1552 1554 1555 1557
1500 1495 1498 1498 1497 1499 1499 1499 1504 1509 1512 1512 1509 1511 1515 1509 1497 1493 1502 1511 1509 1503 1495 1490 1493 1493 1490 1491 1491 1491 1491 1489 1490 1493 1495 1497 1500 1501 1502 1505 1507 1510 1512 1513 1516 1519 1521 1524 1526 1528 1531 1534 1536 1538 1541 1543 1545 1547 1549 1551 1552 1553 1555
1517 1514 1512 1508 1507 1507 1501 1501 1509 1512 1510 1512 1511 1507 1509 1510 1500 1492 1500 1509 1509 1502 1494 1491 1495 1494 1490 1490 1492 1492 1493 1493 1493 1494 1496 1498 1500 1501 1502 1504 1506 1508 1510 1512 1514 1517 1520 1522 1524 1526 1529 1532 1534 1536 1539 1541 1543 1545 1547 1549 1550 1551 1553
1513 1510 1505 1499 1502 1506 1503 1500 1505 1506 1500 1500 1507 1511 1510 1507 1501 1500 1503 1505 1504 1499 1495 1496 1498 1495 1490 1491 1494 1494 1494 1494 1494 1495 1497 1498 1499 1501 1502 1503 1505 1507 1508 1510 1512 1515 1518 1520 1522 1525 1527 1530 1533 1534 1536 1538 1540 1542 1544 1546 1548 1549 1550
1501 1497 1495 1493 1496 1501 1501 1499 1500 1499 1497 1498 1506 1515 1517 1510 1507 1509 1506 1501 1499 1496 1494 1496 1498 1496 1495 1495 1496 1496 1495 1495 1495 1494 1496 1498 1499 1501 1501 1501 1503 1504 1506 1508 1510 1513 1516 1518 1520 1523 1525 1528 1531 1532 1534 1536 1538 1539 1541 1543 1545 1546 1548
1494 1490 1490 1491 1495 1499 1500 1500 1499 1498 1498 1499 1502 1507 1513 1514 1512 1508 1504 1503 1503 1496 1492 1494 1495 1495 1497 1497 1496 1496 1495 1495 1495 1495 1496 1497 1499 1500 1500 1501 1501 1502 1505 1507 1508 1511 1514 1516 1518 1520 1523 1526 1528 1530 1531 1533 1535 1537 1539 1541 1542 1544 1546
1493 1490 1489 1489 1492 1498 1501 1501 1499 1497 1497 1498 1498 1499 1502 1507 1510 1505 1500 1503 1503 1496 1491 1492 1492 1494 1496 1496 1495 1496 1496 1496 1496 1496 1496 1497 1499 1500 1499 1500 1501 1502 1504 1505 1507 1510 1512 1514 1516 1518 1521 1523 1525 1527 1529 1531 1533 1535 1537 1538 1540 1542 1543
1497 1491 1488 1488 1490 1493 1497 1499 1497 1494 1495 1495 1496 1496 1494 1497 1504 1503 1499 1502 1503 1498 1493 1490 1489 1493 1496 1495 1496 1497 1497 1497 1496 1497 1497 1498 1500 1500 1500 1500 1501 1502 1503 1505 1506 1508 1510 1512 1514 1516 1519 1521 1523 1525 1527 1529 1531 1532 1534 1536 1537 1539 1541
1501 1489 1485 1487 1487 1489 1493 1494 1492 1492 1494 1493 1492 1492 1492 1497 1504 1504 1502 1503 1499 1496 1497 1493 1489 1493 1497 1496 1496 1497 1497 1497 1497 1497 1497 1497 1498 1501 1502 1501 1501 1501 1503 1506 1507 1507 1508 1510 1512 1514 1517 1519 1521 1523 1525 1527 1529 1531 1532 1533 1535 1536 1538
1501 1488 1484 1488 1493 1500 1501 1493 1489 1490 1490 1491 1491 1489 1490 1496 1502 1504 1504 1503 1497 1496 1500 1497 1490 1493 1497 1495 1495 1497 1498 1498 1498 1498 1497 1495 1495 1498 1501 1502 1502 1502 1504 1506 1507 1506 1506 1508 1511 1513 1515 1518 1520 1522 1524 1526 1527 1529 1530 1531 1533 1534 1535
1503 1489 1486 1497 1507 1512 1506 1493 1489 1491 1490 1491 1494 1492 1490 1492 1495 1498 1501 1500 1499 1500 1502 1498 1492 1493 1495 1496 1497 1498 1498 1498 1499 1499 1498 1496 1492 1493 1497 1501 1502 1502 1503 1504 1505 1505 1506 1508 1511 1512 1514 1517 1519 1521 1523 1524 1526 1527 1529 1530 1531 1532 1533
1502 1490 1494 1513 1518 1507 1495 1489 1487 1489 1489 1490 1492 1491 1489 1488 1489 1493 1496 1496 1497 1501 1502 1497 1493 1494 1495 1497 1498 1498 1497 1498 1498 1498 1499 1498 1494 1491 1493 1497 1500 1501 1503 1504 1504 1506 1508 1509 1510 1512 1513 1516 1518 1520 1521 1523 1525 1526 1527 1528 1529 1530 1531
1503 1499 1503 1514 1509 1493 1487 1488 1487 1487 1489 1490 1491 1492 1489 1485 1486 1490 1494 1496 1499 1501 1500 1496 1495 1496 1497 1497 1498 1499 1499 1498 1498 1498 1498 1499 1498 1494 1493 1496 1499 1500 1502 1504 1505 1506 1508 1509 1510 1511 1512 1515 1517 1519 1520 1522 1523 1524 1526 1527 1528 1529 1529
1502 1503 1501 1498 1495 1492 1489 1487 1486 1488 1490 1489 1492 1496 1491 1484 1485 1490 1493 1498 1502 1501 1498 1496 1497 1497 1499 1499 1500 1501 1501 1500 1499 1499 1498 1498 1499 1496 1495 1497 1499 1499 1501 1504 1504 1504 1506 1508 1509 1510 1512 1513 1515 1517 1518 1519 1520 1521 1522 1523 1525 1526 1527
1497 1504 1507 1503 1504 1502 1494 1488 1486 1487 1488 1487 1489 1494 1493 1485 1485 1488 1490 1495 1499 1497 1495 1495 1496 1498 1502 1504 1502 1502 1504 1502 1500 1500 1499 1499 1499 1498 1497 1499 1499 1499 1501 1502 1501 1502 1504 1506 1508 1509 1511 1512 1514 1516 1517 1518 1518 1519 1520 1521 1522 1523 1525
1499 1507 1513 1510 1506 1499 1490 1488 1487 1485 1488 1488 1488 1495 1498 1491 1490 1492 1492 1493 1494 1494 1494 1496 1497 1497 1502 1506 1504 1504 1506 1505 1502 1501 1501 1500 1500 1499 1498 1499 1499 1499 1500 1500 1500 1502 1505 1507 1508 1510 1510 1511 1513 1515 1517 1517 1518 1518 1519 1520 1521 1522 1523
1500 1503 1505 1500 1494 1489 1486 1487 1486 1486 1487 1489 1495 1505 1505 1497 1495 1497 1495 1495 1495 1495 1496 1497 1497 1497 1500 1503 1504 1505 1507 1507 1504 1503 1502 1501 1501 1501 1500 1499 1499 1498 1499 1500 1501 1503 1506 1508 1508 1509 1510 1511 1513 1515 1516 1517 1517 1518 1518 1519 1520 1521 1522
1494 1496 1498 1492 1486 1485 1486 1486 1487 1488 1489 1493 1501 1506 1503 1497 1497 1497 1496 1496 1496 1496 1497 1497 1497 1498 1499 1500 1503 1505 1507 1507 1505 1504 1503 1503 1502 1502 1502 1501 1500 1500 1501 1502 1504 1506 1508 1509 1508 1509 1510 1511 1513 1515 1516 1516 1517 1517 1518 1518 1519 1520 1520
1491 1490 1491 1489 1488 1488 1487 1488 1489 1490 1495 1499 1501 1498 1496 1497 1497 1497 1496 1495 1493 1495 1497 1498 1498 1499 1500 1501 1504 1505 1506 1507 1506 1505 1505 1504 1504 1505 1504 1504 1504 1504 1504 1506 1507 1509 1510 1510 1509 1509 1510 1512 1514 1516 1516 1517 1518 1518 1518 1518 1518 1519 1520
1490 1491 1493 1497 1499 1493 1488 1489 1491 1492 1495 1498 1496 1494 1496 1497 1495 1495 1495 1494 1492 1494 1498 1499 1500 1500 1501 1503 1504 1505 1507 1508 1507 1508 1507 1506 1507 1507 1506 1506 1507 1506 1506 1507 1508 1509 1509 1509 1509 1510 1511 1513 1516 1517 1518 1519 1520 1520 1519 1520 1520 1521 1521
1489 1492 1495 1499 1498 1492 1489 1491 1492 1492 1493 1494 1494 1494 1494 1494 1494 1494 1494 1494 1494 1495 1497 1500 1502 1503 1503 1505 1505 1507 1509 1509 1509 1510 1509 1509 1509 1509 1509 1509 1509 1508 1508 1509 1509 1509 1510 1510 1511 1513 1515 1516 1518 1519 1520 1521 1522 1522 1522 1523 1524 1524 1524
1488 1488 1489 1491 1491 1489 1490 1491 1491 1491 1493 1494 1494 1494 1493 1492 1493 1494 1494 1495 1496 1497 1498 1500 1502 1503 1504 1506 1507 1509 1510 1511 1511 1512 1511 1512 1512 1512 1512 1512 1511 1511 1510 1510 1511 1512 1512 1513 1515 1517 1519 1520 1520 1521 1522 1524 1524 1524 1525 1525 1526 1527 1528
1486 1486 1486 1486 1488 1489 1490 1491 1491 1493 1493 1493 1493 1494 1493 1493 1494 1495 1495 1496 1497 1498 1499 1500 1502 1504 1505 1506 1508 1510 1511 1512 1513 1514 1514 1514 1514 1514 1514 1514 1514 1513 1512 1513 1514 1515 1516 1518 1519 1521 1522 1523 1523 1524 1525 1526 1527 1527 1528 1528 1528 1529 1530
1490 1490 1487 1485 1488 1490 1490 1491 1492 1492 1493 1493 1493 1494 1494 1494 1494 1495 1496 1497 1497 1498 1499 1501 1503 1505 1506 1506 1507 1509 1512 1515 1516 1518 1518 1517 1516 1517 1517 1517 1517 1517 1516 1516 1516 1518 1520 1522 1523 1524 1525 1526 1527 1528 1529 1529 1530 1530 1530 1531 1531 1532 1533
1488 1488 1486 1486 1489 1490 1490 1491 1491 1491 1492 1493 1493 1493 1494 1494 1495 1495 1496 1496 1497 1498 1499 1501 1503 1505 1507 1508 1508 1509 1513 1518 1519 1519 1519 1518 1518 1519 1519 1519 1520 1520 1519 1519 1519 1520 1522 1524 1527 1528 1528 1529 1530 1531 1532 1533 1533 1533 1533 1534 1535 1536 1537
1485 1484 1485 1487 1488 1489 1490 1491 1491 1491 1492 1493 1493 1494 1494 1494 1494 1495 1496 1497 1498 1498 1499 1501 1502 1505 1507 1509 1509 1510 1514 1519 1521 1520 1519 1519 1519 1519 1520 1520 1521 1521 1522 1522 1522 1522 1524 1526 1529 1530 1531 1532 1533 1533 1534 1535 1536 1536 1536 1537 1538 1539 1540
1486 1484 1485 1487 1488 1490 1492 1491 1491 1492 1493 1493 1493 1494 1493 1494 1495 1495 1496 1498 1499 1499 1501 1502 1503 1505 1506 1508 1509 1510 1514 1519 1521 1522 1523 1522 1521 1520 1521 1521 1522 1524 1525 1524 1524 1525 1527 1529 1531 1532 1533 1534 1535 1536 1537 1538 1538 1539 1540 1540 1541 1542 1542
1484 1484 1485 1486 1488 1490 1491 1492 1492 1492 1493 1493 1493 1494 1494 1494 1495 1495 1496 1497 1498 1500 1502 1504 1505 1505 1506 1508 1509 1509 1512 1515 1519 1524 1527 1527 1523 1522 1522 1523 1524 1526 1527 1527 1527 1528 1529 1531 1532 1534 1535 1536 1537 1538 1539 1540 1540 1541 1542 1542 1543 1543 1544
1481 1483 1485 1486 1487 1489 1491 1492 1493 1493 1493 1493 1493 1493 1493 1494 1494 1495 1496 1497 1498 1500 1502 1504 1506 1506 1506 1508 1510 1511 1512 1514 1518 1525 1529 1529 1526 1524 1524 1526 1527 1528 1529 1530 1530 1531 1532 1533 1534 1535 1536 1537 1538 1539 1540 1541 1542 1543 1544 1545 1545 1546 1546
1482 1483 1486 1487 1488 1490 1492 1493 1493 1493 1493 1493 1493 1493 1493 1493 1494 1494 1496 1498 1500 1501 1502 1504 1506 1507 1507 1509 1512 1514 1514 1514 1518 1524 1529 1531 1530 1527 1526 1528 1530 1530 1531 1532 1533 1534 1535 1536 1536 1537 1538 1539 1540 1541 1541 1542 1543 1544 1545 1546 1547 1548 1549